When you browse on this site, cookies collect data to enhance your experience and personalize the content and advertising you see.
Visit our Privacy Policy to learn more. By continuing to use the site, you agree to this use of cookies and data.
  • In Denmark
  • List of Countries
  • For 7 days
  • Water Temperature
  • Satellite Maps
  • Weather Map
  • Weather Widgets
  • user-avatar
    Login

    Hourly Weather Serowe

    Today, 19 December, Wednesday

    Time Temperature Precipitation Wind Pressure Humidity
    00:00 +28°C° 0 mm 2 mps 665 mmHg 33%
    01:00 +27°C° 0 mm 2 mps 665 mmHg 34%
    02:00 +27°C° 0 mm 2 mps 665 mmHg 34%
    03:00 +26°C° 0 mm 2 mps 665 mmHg 35%
    04:00 +26°C° 0 mm 2 mps 665 mmHg 35%
    05:00 +25°C° 0 mm 2 mps 665 mmHg 36%
    06:00 +27°C° 0 mm 2 mps 666 mmHg 32%
    07:00 +29°C° 0 mm 3 mps 666 mmHg 29%
    08:00 +32°C° 0 mm 4 mps 667 mmHg 25%
    09:00 +34°C° 0 mm 4 mps 667 mmHg 23%
    10:00 +36°C° 0 mm 4 mps 667 mmHg 21%
    11:00 +37°C° 0 mm 3 mps 667 mmHg 19%
    12:00 +38°C° 0 mm 3 mps 667 mmHg 18%
    13:00 +38°C° 0 mm 2 mps 666 mmHg 17%
    14:00 +38°C° 0 mm 2 mps 666 mmHg 17%
    15:00 +38°C° 0 mm 2 mps 665 mmHg 17%
    16:00 +38°C° 0 mm 2 mps 665 mmHg 17%
    17:00 +37°C° 0 mm 2 mps 664 mmHg 18%
    18:00 +36°C° 0 mm 2 mps 664 mmHg 20%
    19:00 +35°C° 0 mm 2 mps 664 mmHg 22%
    20:00 +32°C° 0 mm 1 mps 664 mmHg 24%
    21:00 +31°C° 0 mm 1 mps 664 mmHg 25%
    22:00 +31°C° 0 mm 1 mps 665 mmHg 27%
    23:00 +30°C° 0 mm 1 mps 665 mmHg 28%

    Tomorrow, 20 December, Thursday

    Time Temperature Precipitation Wind Pressure Humidity
    00:00 +29°C° 0 mm 1 mps 664 mmHg 29%
    01:00 +29°C° 0 mm 1 mps 664 mmHg 30%
    02:00 +28°C° 0 mm 1 mps 663 mmHg 31%
    03:00 +28°C° 0 mm 1 mps 664 mmHg 33%
    04:00 +27°C° 0 mm 1 mps 664 mmHg 34%
    05:00 +27°C° 0 mm 2 mps 664 mmHg 36%
    06:00 +28°C° 0 mm 3 mps 665 mmHg 35%
    07:00 +29°C° 0 mm 4 mps 665 mmHg 34%
    08:00 +30°C° 0 mm 5 mps 666 mmHg 33%
    09:00 +34°C° 0 mm 5 mps 667 mmHg 29%
    10:00 +36°C° 0 mm 4 mps 667 mmHg 24%
    11:00 +38°C° 0 mm 4 mps 667 mmHg 20%
    12:00 +38°C° 0 mm 4 mps 667 mmHg 20%
    13:00 +39°C° 0 mm 3 mps 666 mmHg 19%
    14:00 +39°C° 0 mm 3 mps 666 mmHg 19%
    15:00 +38°C° 0 mm 2 mps 665 mmHg 20%
    16:00 +37°C° 0 mm 2 mps 665 mmHg 22%
    17:00 +36°C° 0 mm 2 mps 665 mmHg 24%
    18:00 +35°C° 0.1 mm 2 mps 665 mmHg 27%
    19:00 +34°C° 0.1 mm 2 mps 665 mmHg 31%
    20:00 +31°C° 0.1 mm 3 mps 665 mmHg 34%
    21:00 +30°C° 0.6 mm 4 mps 666 mmHg 44%
    22:00 +28°C° 0.6 mm 6 mps 666 mmHg 54%
    23:00 +27°C° 0.6 mm 8 mps 667 mmHg 64%

    Day after tomorrow, 21 December, Friday

    Time Temperature Precipitation Wind Pressure Humidity
    00:00 +26°C° 0.1 mm 8 mps 666 mmHg 69%
    01:00 +24°C° 0.1 mm 8 mps 666 mmHg 73%
    02:00 +23°C° 0.1 mm 8 mps 666 mmHg 78%
    03:00 +23°C° 0 mm 7 mps 666 mmHg 78%
    04:00 +22°C° 0 mm 6 mps 666 mmHg 79%
    05:00 +22°C° 0 mm 6 mps 666 mmHg 79%
    06:00 +23°C° 0 mm 6 mps 667 mmHg 75%
    07:00 +24°C° 0 mm 6 mps 667 mmHg 71%
    08:00 +26°C° 0 mm 7 mps 668 mmHg 67%
    09:00 +26°C° 0 mm 7 mps 668 mmHg 63%
    10:00 +27°C° 0 mm 7 mps 668 mmHg 59%
    11:00 +28°C° 0 mm 7 mps 668 mmHg 54%
    12:00 +30°C° 0 mm 7 mps 668 mmHg 49%
    13:00 +32°C° 0 mm 6 mps 667 mmHg 44%
    14:00 +34°C° 0 mm 6 mps 667 mmHg 39%
    15:00 +34°C° 0 mm 6 mps 666 mmHg 38%
    16:00 +34°C° 0 mm 5 mps 666 mmHg 37%
    17:00 +34°C° 0 mm 5 mps 665 mmHg 37%
    18:00 +32°C° 0 mm 5 mps 665 mmHg 42%
    19:00 +30°C° 0 mm 5 mps 665 mmHg 47%
    20:00 +28°C° 0 mm 5 mps 666 mmHg 52%
    21:00 +27°C° 0 mm 5 mps 666 mmHg 56%
    22:00 +26°C° 0 mm 5 mps 667 mmHg 59%
    23:00 +25°C° 0 mm 5 mps 667 mmHg 62%

    22 December, Saturday

    Time Temperature Precipitation Wind Pressure Humidity
    00:00 +24°C° 0 mm 6 mps 667 mmHg 65%
    01:00 +23°C° 0 mm 6 mps 666 mmHg 68%
    02:00 +22°C° 0 mm 6 mps 666 mmHg 71%
    03:00 +22°C° 0 mm 6 mps 666 mmHg 72%
    04:00 +22°C° 0 mm 5 mps 666 mmHg 74%
    05:00 +22°C° 0 mm 5 mps 666 mmHg 76%
    06:00 +22°C° 0 mm 5 mps 666 mmHg 73%
    07:00 +23°C° 0 mm 5 mps 667 mmHg 69%
    08:00 +24°C° 0 mm 6 mps 668 mmHg 66%
    09:00 +27°C° 0 mm 6 mps 668 mmHg 59%
    10:00 +28°C° 0 mm 5 mps 668 mmHg 53%
    11:00 +30°C° 0 mm 5 mps 668 mmHg 47%
    12:00 +32°C° 0 mm 5 mps 667 mmHg 41%
    13:00 +34°C° 0 mm 4 mps 667 mmHg 35%
    14:00 +35°C° 0 mm 3 mps 666 mmHg 30%
    15:00 +35°C° 0 mm 3 mps 666 mmHg 28%
    16:00 +36°C° 0 mm 3 mps 665 mmHg 26%
    17:00 +36°C° 0 mm 3 mps 665 mmHg 24%
    18:00 +34°C° 0 mm 3 mps 665 mmHg 28%
    19:00 +31°C° 0 mm 3 mps 665 mmHg 32%
    20:00 +30°C° 0 mm 3 mps 664 mmHg 36%
    21:00 +29°C° 0 mm 3 mps 664 mmHg 41%
    22:00 +28°C° 0 mm 3 mps 664 mmHg 46%
    23:00 +26°C° 0 mm 3 mps 664 mmHg 51%

    23 December, Sunday

    Time Temperature Precipitation Wind Pressure Humidity
    00:00 +26°C° 0 mm 3 mps 664 mmHg 54%
    01:00 +25°C° 0 mm 3 mps 664 mmHg 56%
    02:00 +25°C° 0 mm 3 mps 664 mmHg 59%
    03:00 +25°C° 0 mm 4 mps 664 mmHg 61%
    04:00 +23°C° 0 mm 4 mps 664 mmHg 63%
    05:00 +23°C° 0 mm 5 mps 665 mmHg 65%
    06:00 +25°C° 0 mm 5 mps 665 mmHg 62%
    07:00 +26°C° 0 mm 5 mps 666 mmHg 59%
    08:00 +27°C° 0 mm 5 mps 666 mmHg 57%
    09:00 +29°C° 0 mm 4 mps 666 mmHg 49%
    10:00 +30°C° 0 mm 3 mps 666 mmHg 42%
    11:00 +33°C° 0 mm 3 mps 666 mmHg 35%
    12:00 +35°C° 0 mm 2 mps 666 mmHg 31%
    13:00 +37°C° 0 mm 2 mps 666 mmHg 27%
    14:00 +38°C° 0 mm 2 mps 666 mmHg 22%
    15:00 +38°C° 0 mm 2 mps 665 mmHg 22%
    16:00 +38°C° 0 mm 2 mps 665 mmHg 22%
    17:00 +37°C° 0 mm 3 mps 665 mmHg 22%
    18:00 +36°C° 0 mm 3 mps 665 mmHg 25%
    19:00 +35°C° 0 mm 3 mps 665 mmHg 29%
    20:00 +33°C° 0 mm 3 mps 665 mmHg 32%
    21:00 +31°C° 0 mm 3 mps 665 mmHg 36%
    22:00 +30°C° 0 mm 3 mps 665 mmHg 40%
    23:00 +29°C° 0 mm 4 mps 665 mmHg 44%

    24 December, Monday

    Time Temperature Precipitation Wind Pressure Humidity
    00:00 +28°C° 0.1 mm 4 mps 665 mmHg 47%
    01:00 +27°C° 0.1 mm 4 mps 665 mmHg 49%
    02:00 +27°C° 0.1 mm 4 mps 664 mmHg 52%
    03:00 +26°C° 0 mm 4 mps 665 mmHg 55%
    04:00 +26°C° 0 mm 5 mps 665 mmHg 59%
    05:00 +25°C° 0 mm 5 mps 665 mmHg 62%
    06:00 +26°C° 0 mm 5 mps 665 mmHg 59%
    07:00 +27°C° 0 mm 6 mps 666 mmHg 56%
    08:00 +28°C° 0 mm 6 mps 666 mmHg 53%
    09:00 +32°C° 0 mm 6 mps 667 mmHg 46%
    10:00 +34°C° 0 mm 5 mps 667 mmHg 39%
    11:00 +36°C° 0 mm 5 mps 667 mmHg 31%
    12:00 +37°C° 0 mm 4 mps 667 mmHg 29%
    13:00 +38°C° 0 mm 3 mps 666 mmHg 26%
    14:00 +39°C° 0 mm 3 mps 666 mmHg 23%
    15:00 +38°C° 0.3 mm 3 mps 665 mmHg 25%
    16:00 +37°C° 0.3 mm 2 mps 665 mmHg 27%
    17:00 +36°C° 0.3 mm 2 mps 665 mmHg 29%
    18:00 +35°C° 0.3 mm 2 mps 665 mmHg 34%
    19:00 +32°C° 0.3 mm 2 mps 665 mmHg 39%
    20:00 +30°C° 0.3 mm 2 mps 665 mmHg 44%
    21:00 +30°C° 0.1 mm 3 mps 665 mmHg 46%
    22:00 +29°C° 0.1 mm 3 mps 665 mmHg 48%
    23:00 +29°C° 0.1 mm 3 mps 665 mmHg 49%
    Show more